N3HCP Weather Reports


time (UTC)temp
C
wind
direction
speed
KPH
gust
KPH
rain 1hr
cm
rain 24hr
cm
rain mn
cm
humidity
%
barometer
mb
20260505140510 22 227 0.0 12.9 0.00 0.00 0.00 57 1008.8
20260505124548 19 172 1.6 4.8 0.00 0.00 0.00 65 1009.7
20260505124045 19 199 0.0 4.8 0.00 0.00 0.00 66 1009.8
20260505123543 19 155 0.0 4.8 0.00 0.00 0.00 65 1009.7
20260505123049 18 157 0.0 3.2 0.00 0.00 0.00 65 1009.7
20260505122540 18 169 0.0 3.2 0.00 0.00 0.00 66 1009.7
20260505122039 18 148 0.0 3.2 0.00 0.00 0.00 66 1009.6
20260505121540 18 169 0.0 8.0 0.00 0.00 0.00 67 1009.6
20260505121035 17 138 0.0 8.0 0.00 0.00 0.00 68 1009.5
20260505120535 17 153 0.0 6.4 0.00 0.00 0.00 68 1009.3
20260505120043 17 98 0.0 8.0 0.00 0.00 0.00 70 1009.3
20260505115530 17 115 1.6 6.4 0.00 0.00 0.00 70 1009.3
20260505115029 17 124 1.6 6.4 0.00 0.00 0.00 69 1009.3
20260505114532 17 91 0.0 4.8 0.00 0.00 0.00 71 1009.2
20260505114028 17 133 0.0 3.2 0.00 0.00 0.00 69 1009.3
20260505113525 17 93 0.0 0.0 0.00 0.00 0.00 70 1009.3
20260505113024 16 124 0.0 1.6 0.00 0.00 0.00 70 1009.2
20260505112522 16 247 0.0 1.6 0.00 0.00 0.00 71 1009.4
20260505112021 16 264 0.0 1.6 0.00 0.00 0.00 71 1009.3
20260505111521 16 264 0.0 1.6 0.00 0.00 0.00 71 1009.1
20260505111019 16 273 0.0 1.6 0.00 0.00 0.00 71 1009.0
20260505110518 15 101 0.0 1.6 0.00 0.00 0.00 73 1008.9
20260505102011 13 109 0.0 3.2 0.00 0.00 0.00 77 1008.6
20260505101511 13 68 0.0 1.6 0.00 0.00 0.00 77 1008.5
20260505101014 13 60 0.0 1.6 0.00 0.00 0.00 77 1008.6
20260505100508 13 46 0.0 1.6 0.00 0.00 0.00 78 1008.6
20260505100010 13 46 0.0 1.6 0.00 0.00 0.00 77 1008.5
20260505095509 13 46 0.0 3.2 0.00 0.00 0.00 77 1008.4
20260505095105 13 96 0.0 3.2 0.00 0.00 0.00 76 1008.3
20260505094504 13 103 0.0 1.6 0.00 0.00 0.00 75 1008.2
20260505094003 13 79 0.0 1.6 0.00 0.00 0.00 75 1008.2
20260505093503 14 79 0.0 1.6 0.00 0.00 0.00 74 1008.3
20260505093002 14 69 0.0 1.6 0.00 0.00 0.00 75 1008.2
20260505092503 13 86 0.0 1.6 0.00 0.00 0.00 75 1008.2
20260505092100 14 85 0.0 1.6 0.00 0.00 0.00 74 1008.3
20260505091500 14 156 0.0 4.8 0.00 0.00 0.00 73 1008.3
20260505091104 14 84 0.0 4.8 0.00 0.00 0.00 73 1008.3
20260505090559 14 91 0.0 3.2 0.00 0.00 0.00 74 1008.1
20260505090059 14 126 0.0 3.2 0.00 0.00 0.00 74 1008.3
20260505085558 14 111 0.0 4.8 0.00 0.00 0.00 74 1008.2
20260505085057 13 67 0.0 1.6 0.00 0.00 0.00 75 1008.1
20260505084556 13 108 0.0 6.4 0.00 0.00 0.00 74 1008.1
20260505084053 14 75 1.6 6.4 0.00 0.00 0.00 73 1008.2
20260505083554 14 321 0.0 3.2 0.00 0.00 0.00 73 1008.1
20260505083057 14 321 0.0 3.2 0.00 0.00 0.00 72 1008.1
20260505082552 14 330 0.0 1.6 0.00 0.00 0.00 72 1008.1
20260505082049 14 101 0.0 1.6 0.00 0.00 0.00 72 1008.1
20260505081549 14 101 0.0 4.8 0.00 0.00 0.00 73 1008.1
20260505081050 15 6 0.0 4.8 0.00 0.00 0.00 72 1008.1
20260505080545 15 304 0.0 1.6 0.00 0.00 0.00 71 1008.1
20260505080046 15 98 0.0 1.6 0.00 0.00 0.00 70 1008.1
20260505075542 15 259 0.0 3.2 0.00 0.00 0.00 70 1008.1
20260505075041 15 165 0.0 3.2 0.00 0.00 0.00 70 1008.0
20260505074541 15 115 0.0 6.4 0.00 0.00 0.00 70 1007.9
20260505074040 15 127 0.0 6.4 0.00 0.00 0.00 70 1007.9
20260505073539 15 109 0.0 3.2 0.00 0.00 0.00 69 1007.9
20260505073046 15 87 0.0 3.2 0.00 0.00 0.00 69 1007.8
20260505072537 15 89 0.0 3.2 0.00 0.00 0.00 69 1007.8
20260505072035 15 70 0.0 3.2 0.00 0.00 0.00 69 1007.8
20260505071545 15 84 0.0 3.2 0.00 0.00 0.00 69 1007.8
20260505071034 15 101 0.0 3.2 0.00 0.00 0.00 68 1007.9
20260505070532 16 105 0.0 4.8 0.00 0.00 0.00 68 1008.1
20260505070031 16 89 1.6 4.8 0.00 0.00 0.00 68 1008.1
20260505065531 15 98 1.6 6.4 0.00 0.00 0.00 68 1008.0
20260505065031 15 77 0.0 6.4 0.00 0.00 0.00 69 1008.0
20260505064530 15 86 1.6 8.0 0.00 0.00 0.00 69 1008.2
20260505064129 15 89 3.2 8.0 0.00 0.00 0.00 68 1008.1
20260505063528 15 110 0.0 6.4 0.00 0.00 0.00 68 1008.3
20260505063025 15 97 0.0 3.2 0.00 0.00 0.00 67 1008.4
20260505062624 15 114 0.0 3.2 0.00 0.00 0.00 67 1008.4
20260505062024 16 89 0.0 1.6 0.00 0.00 0.00 67 1008.3
20260505061523 16 141 0.0 1.6 0.00 0.00 0.00 67 1008.4
20260505061025 16 122 0.0 3.2 0.00 0.00 0.00 67 1008.3
20260505060524 16 117 0.0 3.2 0.00 0.00 0.00 66 1008.3
20260505060035 16 105 0.0 3.2 0.00 0.00 0.00 66 1008.3
20260505055523 16 126 0.0 3.2 0.00 0.00 0.00 66 1008.4
20260505055019 16 120 0.0 6.4 0.00 0.00 0.00 66 1008.3
20260505054518 16 150 1.6 8.0 0.00 0.00 0.00 66 1008.2
20260505054016 16 136 1.6 8.0 0.00 0.00 0.00 66 1008.2
20260505053515 16 135 0.0 8.0 0.00 0.00 0.00 65 1008.3
20260505053015 16 156 1.6 8.0 0.00 0.00 0.00 65 1008.3
20260505052514 16 149 1.6 11.3 0.00 0.00 0.00 65 1008.2
20260505052012 16 142 1.6 11.3 0.00 0.00 0.00 65 1008.1
20260505051519 16 152 1.6 9.7 0.00 0.00 0.00 65 1008.1
20260505051012 16 165 3.2 11.3 0.00 0.00 0.00 65 1008.0
20260505050512 16 192 1.6 8.0 0.00 0.00 0.00 65 1008.1
20260505041505 16 158 3.2 12.9 0.00 0.00 0.00 63 1007.9
20260505041002 16 139 3.2 12.9 0.00 0.00 0.00 63 1008.1
20260505040601 16 142 1.6 14.5 0.00 0.00 0.00 63 1008.1
20260505040101 16 145 3.2 14.5 0.00 0.00 0.00 63 1008.0
20260505035559 16 174 1.6 8.0 0.00 0.00 0.00 63 1008.1
20260505035101 16 160 3.2 11.3 0.00 0.00 0.00 62 1007.9
20260505034556 16 158 1.6 11.3 0.00 0.00 0.00 62 1007.9
20260505034056 16 144 1.6 8.0 0.00 0.00 0.00 62 1007.8
20260505033554 16 128 1.6 8.0 0.00 0.00 0.00 62 1007.8
20260505033054 16 116 3.2 8.0 0.00 0.00 0.00 62 1007.9
20260505032552 16 111 1.6 11.3 0.00 0.00 0.00 62 1007.9
20260505032055 16 150 1.6 11.3 0.00 0.00 0.00 62 1007.8
20260505031555 16 132 1.6 9.7 0.00 0.00 0.00 62 1007.8
20260505031051 16 125 1.6 6.4 0.00 0.00 0.00 62 1007.7
20260505030553 16 170 1.6 8.0 0.00 0.00 0.00 62 1007.7
20260505030050 16 123 3.2 9.7 0.00 0.00 0.00 62 1007.8
20260505025550 16 136 1.6 6.4 0.00 0.00 0.00 61 1007.8
20260505025049 16 116 1.6 6.4 0.00 0.00 0.00 61 1007.9
20260505024554 16 157 1.6 6.4 0.00 0.00 0.00 61 1007.8
20260505024047 16 144 1.6 6.4 0.00 0.00 0.00 61 1007.7
20260505023546 16 143 1.6 6.4 0.00 0.00 0.00 60 1007.7
20260505023051 16 198 1.6 11.3 0.00 0.00 0.00 60 1007.9
20260505022545 16 144 1.6 6.4 0.00 0.00 0.00 59 1007.9
20260505022045 16 115 1.6 4.8 0.00 0.00 0.00 59 1008.0
20260505021544 16 124 1.6 4.8 0.00 0.00 0.00 59 1008.1
20260505021044 16 100 1.6 4.8 0.00 0.00 0.00 59 1007.9
20260505020544 16 144 1.6 8.0 0.00 0.00 0.00 58 1007.9
20260505020043 17 140 3.2 8.0 0.00 0.00 0.00 58 1007.9
20260505015542 17 177 1.6 6.4 0.00 0.00 0.00 57 1008.0
20260505015045 17 157 1.6 9.7 0.00 0.00 0.00 56 1008.1
20260505014542 17 165 3.2 9.7 0.00 0.00 0.00 56 1008.1
20260505014044 17 187 1.6 8.0 0.00 0.00 0.00 56 1008.1
20260505013540 17 136 3.2 8.0 0.00 0.00 0.00 56 1008.1
20260505013056 17 93 1.6 9.7 0.00 0.00 0.00 56 1008.1
20260505012542 17 159 3.2 9.7 0.00 0.00 0.00 55 1008.0
20260505012037 17 136 1.6 11.3 0.00 0.00 0.00 55 1008.0
20260505011537 17 152 3.2 11.3 0.00 0.00 0.00 55 1007.9
20260505011036 17 145 3.2 6.4 0.00 0.00 0.00 55 1007.9
20260505010534 17 143 3.2 16.1 0.00 0.00 0.00 55 1007.9
20260505010035 17 148 3.2 16.1 0.00 0.00 0.00 55 1007.9
20260505005534 17 197 3.2 9.7 0.00 0.00 0.00 55 1007.8
20260505005033 17 124 1.6 12.9 0.00 0.00 0.00 56 1007.8
20260505004532 17 215 1.6 8.0 0.00 0.00 0.00 55 1007.8
20260505004031 17 168 1.6 8.0 0.00 0.00 0.00 55 1007.8
20260505003533 17 113 1.6 8.0 0.00 0.00 0.00 55 1007.7
20260505003033 17 139 1.6 6.4 0.00 0.00 0.00 55 1007.9
20260505002530 18 151 0.0 4.8 0.00 0.00 0.00 55 1007.8
20260505002029 18 152 1.6 4.8 0.00 0.00 0.00 54 1007.7
20260505001530 18 124 1.6 9.7 0.00 0.00 0.00 54 1007.7
20260505001029 18 165 3.2 9.7 0.00 0.00 0.00 53 1007.7
20260505000531 18 136 1.6 8.0 0.00 0.00 0.00 53 1007.7
20260505000029 18 158 1.6 9.7 0.00 0.00 0.00 53 1007.7
20260504235525 18 160 3.2 9.7 0.00 0.00 0.00 53 1007.7
20260504235025 18 115 1.6 6.4 0.00 0.00 0.00 53 1007.6
20260504234524 19 111 1.6 6.4 0.00 0.00 0.00 52 1007.5
20260504234029 19 143 1.6 4.8 0.00 0.00 0.00 52 1007.5
20260504233523 19 167 0.0 6.4 0.00 0.00 0.00 51 1007.4
20260504233022 20 154 1.6 8.0 0.00 0.00 0.00 50 1007.3
20260504232522 20 152 1.6 6.4 0.00 0.00 0.00 49 1007.2
20260504232021 20 149 1.6 16.1 0.00 0.00 0.00 49 1007.3
20260504231520 20 116 3.2 14.5 0.00 0.00 0.00 48 1007.3
20260504231020 21 165 1.6 12.9 0.00 0.00 0.00 48 1007.3
20260504230520 21 206 3.2 12.9 0.00 0.00 0.00 47 1007.3
20260504230018 22 124 3.2 9.7 0.00 0.00 0.00 46 1007.2
20260504225518 22 201 1.6 8.0 0.00 0.00 0.00 45 1007.2
20260504225017 22 203 1.6 8.0 0.00 0.00 0.00 45 1007.2
20260504224519 22 168 3.2 12.9 0.00 0.00 0.00 44 1007.2
20260504224016 22 171 3.2 12.9 0.00 0.00 0.00 45 1007.2
20260504223515 22 148 3.2 11.3 0.00 0.00 0.00 44 1007.3
20260504223015 22 143 1.6 8.0 0.00 0.00 0.00 45 1007.3
20260504222513 22 210 0.0 9.7 0.00 0.00 0.00 44 1007.2
20260504222016 22 237 1.6 11.3 0.00 0.00 0.00 44 1007.2
20260504221512 22 157 3.2 11.3 0.00 0.00 0.00 43 1007.3
20260504221011 22 168 0.0 6.4 0.00 0.00 0.00 43 1007.3
20260504220512 23 179 1.6 6.4 0.00 0.00 0.00 44 1007.4
20260504220010 23 150 1.6 11.3 0.00 0.00 0.00 43 1007.4
20260504215508 22 298 1.6 25.7 0.00 0.00 0.00 44 1007.3
20260504215007 22 252 4.8 25.7 0.00 0.00 0.00 42 1007.5
20260504214517 23 120 3.2 17.7 0.00 0.00 0.00 42 1007.6
20260504214012 23 229 4.8 12.9 0.00 0.00 0.00 42 1007.5
20260504213505 23 221 1.6 8.0 0.00 0.00 0.00 44 1007.4
20260504213004 23 212 1.6 9.7 0.00 0.00 0.00 43 1007.5
20260504212603 23 176 0.0 9.7 0.00 0.00 0.00 43 1007.5
20260504212002 23 203 3.2 12.9 0.00 0.00 0.00 41 1007.5
20260504211600 23 163 0.0 12.9 0.00 0.00 0.00 42 1007.5
20260504211101 23 193 1.6 14.5 0.00 0.00 0.00 42 1007.4
20260504210558 23 186 4.8 14.5 0.00 0.00 0.00 42 1007.6
20260504210059 23 203 0.0 6.4 0.00 0.00 0.00 44 1007.6
20260504205555 22 252 1.6 6.4 0.00 0.00 0.00 44 1007.6
20260504205056 22 249 0.0 25.7 0.00 0.00 0.00 44 1007.6
20260504204553 22 221 1.6 25.7 0.00 0.00 0.00 43 1007.7
20260504204052 22 213 1.6 16.1 0.00 0.00 0.00 45 1007.7
20260504203550 22 224 3.2 14.5 0.00 0.00 0.00 43 1007.6
20260504203048 22 248 4.8 14.5 0.00 0.00 0.00 43 1007.7
20260504202547 22 202 3.2 14.5 0.00 0.00 0.00 45 1007.7
20260504202046 22 233 1.6 12.9 0.00 0.00 0.00 44 1008.0
20260504201559 22 207 1.6 17.7 0.00 0.00 0.00 44 1008.0
20260504201047 22 228 4.8 17.7 0.00 0.00 0.00 45 1008.0
20260504200543 22 155 0.0 37.0 0.00 0.00 0.00 45 1008.2
20260504200045 22 239 4.8 37.0 0.00 0.00 0.00 44 1008.3
20260504195540 22 250 3.2 17.7 0.00 0.00 0.00 43 1008.3
20260504195039 22 203 4.8 17.7 0.00 0.00 0.00 45 1008.4
20260504194541 22 233 1.6 20.9 0.00 0.00 0.00 46 1008.5
20260504194036 22 172 1.6 12.9 0.00 0.00 0.00 44 1008.5
20260504193534 22 235 1.6 17.7 0.00 0.00 0.00 45 1008.4
20260504193034 22 218 3.2 20.9 0.00 0.00 0.00 47 1008.5
20260504192533 22 238 4.8 27.4 0.00 0.00 0.00 43 1008.5
20260504192032 22 235 6.4 27.4 0.00 0.00 0.00 42 1008.6
20260504191530 22 228 1.6 16.1 0.00 0.00 0.00 45 1008.7
20260504191030 22 141 4.8 19.3 0.00 0.00 0.00 45 1008.7
20260504190531 21 237 8.0 19.3 0.00 0.00 0.00 43 1008.8
20260504190028 22 237 6.4 11.3 0.00 0.00 0.00 44 1009.0
20260504185525 22 199 4.8 9.7 0.00 0.00 0.00 42 1008.9
20260504185023 22 155 1.6 25.7 0.00 0.00 0.00 47 1009.0
20260504184524 22 236 4.8 25.7 0.00 0.00 0.00 43 1009.1
20260504184021 22 149 1.6 12.9 0.00 0.00 0.00 46 1009.1
20260504183520 22 240 1.6 12.9 0.00 0.00 0.00 46 1009.1
20260504183018 22 214 4.8 11.3 0.00 0.00 0.00 45 1009.2
20260504182515 21 198 3.2 17.7 0.00 0.00 0.00 44 1009.3
20260504182014 21 200 1.6 22.5 0.00 0.00 0.00 45 1009.5
20260504181523 21 146 4.8 14.5 0.00 0.00 0.00 44 1009.4
20260504181015 21 210 1.6 11.3 0.00 0.00 0.00 45 1009.6
20260504180511 21 226 1.6 11.3 0.00 0.00 0.00 44 1009.7
20260504180009 21 262 3.2 11.3 0.00 0.00 0.00 44 1009.7
20260504175508 21 159 3.2 9.7 0.00 0.00 0.00 44 1009.7
20260504175107 21 236 1.6 8.0 0.00 0.00 0.00 45 1009.7
20260504174506 21 173 3.2 17.7 0.00 0.00 0.00 44 1009.8
20260504174004 21 188 1.6 19.3 0.00 0.00 0.00 43 1009.8
20260504173504 21 178 4.8 19.3 0.00 0.00 0.00 45 1009.9
20260504173002 21 335 4.8 17.7 0.00 0.00 0.00 44 1009.9
20260504172600 21 262 3.2 17.7 0.00 0.00 0.00 45 1010.0
20260504172100 20 217 1.6 16.1 0.00 0.00 0.00 47 1010.1
20260504171608 20 217 4.8 16.1 0.00 0.00 0.00 44 1010.2
20260504171057 20 127 0.0 16.1 0.00 0.00 0.00 47 1010.3
20260504170554 20 196 6.4 24.1 0.00 0.00 0.00 44 1010.4
20260504151024 17 136 6.4 12.9 0.00 0.00 0.00 46 1011.9
20260504150523 17 261 4.8 11.3 0.00 0.00 0.00 46 1012.0